Location: Newark
(50.8086°N, 4.3114°E)
Time: 05:11:04
(UTC+00:00)

XW-2D - Pass Details

Date: 22 January 2020
Orbit: 507 x 528 km, 97.5° (Epoch: 27 February)

Event Time Altitude Azimuth Distance (km) Brightness Sun altitude
Rises 17:14:54 0° 186° (S) 2,648 ? -9.2°
Reaches altitude 10° 17:17:07 10° 195° (SSW) 1,762 ? -9.5°
Maximum altitude 17:20:38 35° 263° (W) 855 ? -10.0°
Drops below altitude 10° 17:24:10 10° 331° (NNW) 1,766 ? -10.5°
Sets 17:26:24 0° 340° (NNW) 2,656 ? -10.9°
